User: anonymous   Login
Location: Unspecified
(0.0000°N, 0.0000°E)
Time: 19:39:06
(UTC+00:00)
Language:

Aussat K2 - Orbit

View from above orbital plane
View from above orbital plane
View from above satellite
View from above satellite

Ground track
Ground track

The orbit data is extracted from the following two-line orbital elements,

1 16275U 85109C   17235.28865340 -.00000280  00000-0  00000+0 0  9998
2 16275  15.2034   7.8146 0006652 239.6044 119.1981  0.99940757105894
Epoch (UTC): 23 August 2017 06:55:39
Eccentricity: 0.0006652
inclination: 15.2034°
perigee height: 35851 km
apogee height: 35907 km
right ascension of ascending node: 7.8146°
argument of perigee: 239.6044°
revolutions per day: 0.99940757
mean anomaly at epoch: 119.1981°
orbit number at epoch: 10589

The dashed part of the orbit path shows where the satellite is in the earth's shadow,  

DLR